Flag for Canada Weather past 2 weeks in Kenora, Ontario, Canada

Now
64 °F

Partly sunny.


Feels Like: 64 °F
Forecast: 59 / 69 °F
Wind: 12 mph from West

Location: Kenora

Current Time: Jul 31, 2015 at 10:36:01 AM

Latest Report: Jul 31, 2015 at 10:00 AM


Visibility: 15 mi

Pressure: 29.95 "Hg

Humidity: 78%

Dew point: 57 °F

Location of KenoraLocation

Historic Weather in Kenora — Graph

°F

Kenora temperature yesterday

Maximum temperature yesterday: 77 °F (at 4:00 PM)
Minimum temperature yesterday: 57 °F (at 3:00 AM)
Average temperature yesterday: 66 °F

Past Weeks' High & Low Weather Summary

 TemperatureHumidityPressure
High86 °F (Jul 26, 5:00 PM)100% (Jul 16, 10:00 AM)29.96 "Hg (Jul 16, 10:00 AM)
Low54 °F (Jul 21, 6:00 AM)40% (Jul 21, 4:00 PM)29.35 "Hg (Jul 29, 5:00 AM)
Average69 °F75%29.77 "Hg
* Reported Jul 16 9:03 AM — Jul 31 9:00 AM, Kenora, Weather by CustomWeather, © 2015

Note: Actual official high and low records may vary slightly from our data, if they occured in-between our weather recording intervals... More about our weather records

Advertising

Kenora weather history for previous 24 hours

 ConditionsComfort  
Time TempWeatherWind HumidityBarometerVisibility
9:00 AM
Fri, Jul 31
61 °FPartly sunny.8 mph88%29.95 "Hg15 mi
8:00 AM61 °FBroken clouds.8 mph88%29.95 "Hg15 mi
7:00 AM57 °FScattered clouds.9 mph94%29.94 "Hg15 mi
6:00 AM57 °FScattered clouds.6 mph94%29.92 "Hg15 mi
5:00 AM57 °FPassing clouds.7 mph94%29.91 "Hg15 mi
4:00 AM57 °FPassing clouds.7 mph94%29.91 "Hg15 mi
3:00 AM57 °FClear.7 mph94%29.90 "Hg15 mi
2:00 AM57 °FPassing clouds.7 mph94%29.90 "Hg15 mi
1:00 AM57 °FPassing clouds.6 mph94%29.90 "Hg15 mi
12:00 AM59 °FPassing clouds.6 mph94%29.90 "Hg15 mi
11:00 PM
Thu, Jul 30
61 °FPartly cloudy.7 mph83%29.90 "Hg15 mi
10:00 PM61 °FPartly cloudy.5 mph88%29.91 "Hg15 mi
9:00 PM61 °FBroken clouds.10 mph83%29.90 "Hg15 mi
8:00 PM61 °FThunderstorms. Partly sunny.7 mph88%29.92 "Hg10 mi
7:00 PM75 °FThunderstorms. Broken clouds.15 mph50%29.87 "Hg15 mi
6:00 PM77 °FScattered clouds.17 mph44%29.85 "Hg15 mi
5:00 PM77 °FScattered clouds.18 mph42%29.85 "Hg15 mi
4:00 PM77 °FScattered clouds.14 mph51%29.85 "Hg15 mi
3:00 PM75 °FThunderstorms. Broken clouds.14 mph50%29.86 "Hg15 mi
2:46 PM73 °FSprinkles. Partly sunny.14 mph61%29.87 "Hg15 mi
2:00 PM75 °FMild.6 mph61%29.86 "HgN/A
1:00 PM73 °FScattered clouds.10 mph61%29.88 "Hg15 mi
12:00 PM72 °FBroken clouds.9 mph69%29.90 "Hg15 mi
11:00 AM68 °FBroken clouds.6 mph78%29.90 "Hg15 mi
10:00 AM66 °FBroken clouds.13 mph73%29.90 "Hg15 mi
Weather by CustomWeather, © 2015

See weather overviewHow to use our weather pages